Location: The Saddle
(36.8333°N, 80.3417°W)
Time: 10:22:55
(UTC-05:00)

S-56A Canister/Altair - Pass Details

Date: 18 December 2023
Orbit: 640 x 2488 km, 38.9° (Epoch: 25 February)

Event Time Altitude Azimuth Distance (km) Brightness Sun altitude
Rises 09:14:22 0° 265° (W) 4,620 11.2 15.9°
Reaches altitude 10° 09:17:58 10° 266° (W) 3,338 10.5 16.4°
Maximum altitude 09:25:48 77° 353° (N) 985 8.2 17.4°
Drops below altitude 10° 09:31:09 10° 79° (E) 2,312 10.5 18.1°
Sets 09:33:15 0° 81° (E) 3,119 11.1 18.4°
